TV
NORAD ID: 22912
Int'l Code: 1993-073B
Perigee: 36,137.8 km
Apogee: 36,179.5 km
Inclination: 11.3 °
Period: 1,454.8 minutes
Semi major axis: 42529 km
Launch date: November 20, 1993
Source: European Organization for the Exploitation of Mete (EUME)
Comments: Meteorological spacecraft; intended primarily to support the National Meteorological Services (NMS) of Member States; currently serving as backup
Two Line Element Set (TLE):
1 22912U 93073B 13137.14093613 -.00000191 00000-0 00000+0 0 105
2 22912 011.3402 043.0993 0004907 059.7389 300.2388 00.98984141 69719
Source: AFSPC
NASA's NSSDC Master Catalog entry for METEOSAT 6